Location: Владивосток
(43.1151°N, 131.8856°E)
Time: 00:18:09
(UTC+10:00)

N. Korean satellite - Visible Passes

Search period start: 25 January 2022 00:00
Search period end: 04 February 2022 00:00
Orbit: 447 x 491 km, 97.3° (Epoch: 23 January)

Date Brightness Start Highest point End Pass type
(mag) Time Alt. Az. Time Alt. Az. Time Alt. Az.
25 Jan 10.0 05:22:07 10° ENE 05:22:30 11° ENE 05:22:30 11° ENE visible
25 Jan 6.9 06:53:27 10° N 06:56:33 43° NW 06:56:33 43° NW visible
26 Jan 6.8 06:24:10 10° NNE 06:33:12 - S 06:27:28 67° NE visible
27 Jan 8.4 05:55:17 10° NNE 06:03:40 - S 05:58:23 30° E visible
27 Jan 8.0 07:28:56 10° NNW 07:31:27 18° WNW 07:32:28 16° W visible
28 Jan 9.7 05:27:11 10° ENE 05:29:08 14° E 05:29:20 14° E visible
28 Jan 7.0 06:59:02 10° N 07:02:26 38° WNW 07:03:24 31° WSW visible
29 Jan 6.5 06:29:37 10° NNE 06:33:17 88° ESE 06:34:21 44° S visible
30 Jan 8.1 06:00:37 10° NNE 06:04:00 35° E 06:05:20 26° SE visible
30 Jan 8.2 07:34:35 10° NNW 07:36:50 16° WNW 07:39:03 10° WSW visible
31 Jan 9.5 05:32:14 10° NE 05:34:34 16° E 05:36:25 12° SE visible
31 Jan 7.2 07:04:30 10° N 07:07:48 33° WNW 07:10:29 14° SW visible
01 Feb 6.4 06:34:58 10° N 06:38:38 79° WNW 06:41:42 14° SSW visible
02 Feb 7.8 06:05:51 10° NNE 06:09:19 41° E 06:12:44 10° S visible
02 Feb 8.3 07:40:11 10° NNW 07:42:05 14° WNW 07:43:58 10° W visible
03 Feb 9.3 05:37:17 10° NE 05:39:52 18° E 05:42:26 10° SE visible
03 Feb 7.4 07:09:52 10° N 07:13:01 28° WNW 07:16:09 10° SW visible
